This is the latest recevied weather packets stored in our database for station/object KF0JHJ. If no packets are shown the sender has not sent any weather packets the latest 1 day(s).
| Time | Temp. | Humidity | Pressure | Rain* | Wind** | Luminosity | Snow |
|---|---|---|---|---|---|---|---|
| 1778049771 | 0.56° C | 73% | 1012 hPa | - | 0 m/s | 0 W/m² | - |
| 1778049469 | 0° C | 74% | 1012.3 hPa | - | 0 m/s | 0 W/m² | - |
| 1778049166 | 0° C | 74% | 1012.4 hPa | - | 0.45 m/s, 66° | 0 W/m² | - |
| 1778048865 | 0° C | 73% | 1012.1 hPa | - | 0 m/s | 0 W/m² | - |
| 1778048562 | 0.56° C | 72% | 1012.1 hPa | - | 0 m/s | 0 W/m² | - |
| 1778048257 | 0.56° C | 71% | 1012 hPa | - | 0 m/s | 0 W/m² | - |
| 1778047955 | 1.11° C | 70% | 1012.1 hPa | - | 0 m/s | 0 W/m² | - |
| 1778047653 | 1.11° C | 70% | 1012.3 hPa | - | 0 m/s | 0 W/m² | - |
| 1778047350 | 1.11° C | 72% | 1012.3 hPa | - | 0 m/s | 0 W/m² | - |
| 1778047047 | 0.56° C | 74% | 1012.4 hPa | - | 0 m/s | 0 W/m² | - |
| 1778046744 | 0° C | 74% | 1012.2 hPa | - | 0 m/s | 0 W/m² | - |
| 1778046441 | 0° C | 75% | 1012.2 hPa | - | 0 m/s | 0 W/m² | - |
| 1778046137 | 0° C | 75% | 1012.2 hPa | - | 0 m/s | 0 W/m² | - |
| 1778045835 | 0° C | 73% | 1012 hPa | - | 0 m/s | 0 W/m² | - |
| 1778045533 | 0° C | 74% | 1012.4 hPa | - | 0.45 m/s, 98° | 0 W/m² | - |
| 1778045231 | 0° C | 73% | 1012.1 hPa | - | 0.45 m/s, 117° | 0 W/m² | - |
| 1778044929 | 0.56° C | 72% | 1012.2 hPa | - | 0 m/s | 0 W/m² | - |
| 1778044626 | 0.56° C | 71% | 1012.2 hPa | - | 0 m/s | 0 W/m² | - |
| 1778044322 | 1.11° C | 70% | 1011.9 hPa | - | 0 m/s | 0 W/m² | - |
| 1778044021 | 1.11° C | 69% | 1012 hPa | - | 0 m/s | 0 W/m² | - |
| 1778043717 | 0.56° C | 70% | 1011.8 hPa | - | 0 m/s | 0 W/m² | - |
| 1778043414 | 1.11° C | 70% | 1011.9 hPa | - | 0 m/s | 0 W/m² | - |
| 1778043110 | 1.11° C | 68% | 1011.8 hPa | - | 0 m/s | 0 W/m² | - |
| 1778042808 | 1.67° C | 67% | 1011.7 hPa | - | 0 m/s | 0 W/m² | - |
| 1778042505 | 1.67° C | 65% | 1011.7 hPa | - | 0 m/s | 0 W/m² | - |
* Rain since midnight (hover to see other rain measurements)
** Current wind speed in m/s (hover to see current wind gust speed)